Weather History for KCEZ - August, 2014

Change the Weather History Date:

Thursday, August 14, 2014

  Actual Average Record
Temperature  
Mean Temperature 71 °F 70 °F  
Max Temperature 81 °F 86 °F 95 °F (1996)
Min Temperature 60 °F 54 °F 43 °F (2010)
Degree Days  
Heating Degree Days 0 0  
Month to date heating degree days 0 0  
Since 1 June heating degree days 31 78  
Since 1 July heating degree days 0 3  
Cooling Degree Days 6 5  
Month to date cooling degree days 86 87  
Year to date cooling degree days 467 351  
Since 1 June cooling degree days 451 346  
Growing Degree Days 20 (Base 50)    
Moisture  
Dew Point 59 °F    
Average Humidity 66    
Maximum Humidity 93    
Minimum Humidity 39    
Precipitation  
Precipitation 0.30 in 0.05 in 0.58 in (2001)
Month to date precipitation 0.68 0.73  
Year to date precipitation 4.36 7.64  
Sea Level Pressure  
Sea Level Pressure 30.07 in    
Wind  
Wind Speed 7 mph (WSW)    
Max Wind Speed 17 mph    
Max Gust Speed 23 mph    
Visibility 9 miles    
Events Rain    
T = Trace of Precipitation, MM = Missing Value Source: NWS Daily Summary

Daily Weather History Graph

Daily Weather History Graph

Search for Another Location

Airport or City:

Trip Planner

Search our weather history database for the weather conditions in past years. The results will help you decide how hot, cold, wet, or windy it might be!

Date:

Astronomy

Aug. 14, 2014 Rise Set
Actual Time 6:30 AM MDT 8:07 PM MDT
Civil Twilight 6:02 AM MDT 8:35 PM MDT
Nautical Twilight 5:28 AM MDT 9:08 PM MDT
Astronomical Twilight 4:53 AM MDT 9:44 PM MDT
Moon 10:40 PM MDT (8/14) 11:03 AM MDT (8/14)
Length of Visible Light 14h 33m
Length of Day
13h 37m
Waning Gibbous, 78% of the Moon is Illuminated
Aug 14
Waning Gibbous
Aug 17
Last Quarter
Aug 25
New
Sep 2
First Quarter
Sep 8
Full

Hourly Weather History & Observations

Time (MDT) Temp. Heat Index Dew Point Humidity Pressure Visibility Wind Dir Wind Speed Gust Speed Precip Events Conditions
12:53 AM 64.0 °F - 57.9 °F 80% 30.00 in 10.0 mi SSE 13.8 mph - N/A   Overcast
1:53 AM 64.0 °F - 59.0 °F 84% 29.99 in 10.0 mi SE 6.9 mph - N/A   Overcast
2:53 AM 64.0 °F - 59.0 °F 84% 29.98 in 10.0 mi SSE 8.1 mph - N/A   Overcast
3:53 AM 64.0 °F - 59.0 °F 84% 29.98 in 10.0 mi South 12.7 mph - N/A   Overcast
4:33 AM 61.0 °F - 60.1 °F 97% 30.23 in 2.0 mi WSW 8.1 mph - 0.08 in Rain Heavy Rain
4:42 AM 61.0 °F - 61.0 °F 100% 30.23 in 1.5 mi SSW 9.2 mph - 0.18 in Rain Heavy Rain
4:51 AM 60.8 °F - 60.8 °F 100% 30.23 in 2.5 mi South 4.6 mph - 0.21 in Rain Rain
4:53 AM 60.1 °F - 60.1 °F 100% 30.02 in 3.0 mi South 4.6 mph - 0.21 in Rain Light Rain
5:39 AM 61.0 °F - 60.1 °F 97% 30.23 in 8.0 mi Calm Calm - 0.07 in Rain Light Rain
5:53 AM 61.0 °F - 60.1 °F 97% 30.02 in 10.0 mi Calm Calm - 0.07 in   Overcast
6:06 AM 61.0 °F - 61.0 °F 100% 30.23 in 10.0 mi NE 3.5 mph - 0.00 in   Overcast
6:53 AM 62.1 °F - 61.0 °F 96% 30.04 in 10.0 mi SW 5.8 mph - 0.00 in   Overcast
7:08 AM 61.0 °F - 60.1 °F 97% 30.24 in 10.0 mi WSW 5.8 mph - N/A   Overcast
7:22 AM 62.1 °F - 61.0 °F 96% 30.25 in 8.0 mi SW 8.1 mph - 0.00 in Rain Light Rain
7:53 AM 62.1 °F - 61.0 °F 96% 30.07 in 10.0 mi SW 8.1 mph - 0.01 in   Overcast
8:53 AM 64.0 °F - 61.0 °F 90% 30.08 in 10.0 mi WSW 4.6 mph - 0.01 in   Overcast
9:19 AM 64.0 °F - 61.0 °F 90% 30.27 in 10.0 mi West 5.8 mph - N/A   Overcast
9:53 AM 66.9 °F - 62.1 °F 84% 30.08 in 10.0 mi NW 8.1 mph - N/A   Mostly Cloudy
10:53 AM 69.1 °F - 60.1 °F 73% 30.07 in 10.0 mi West 10.4 mph - N/A   Clear
11:53 AM 72.0 °F - 59.0 °F 64% 30.05 in 10.0 mi NW 8.1 mph - N/A   Scattered Clouds
12:53 PM 75.0 °F - 57.9 °F 55% 30.02 in 10.0 mi West 6.9 mph - N/A   Clear
1:53 PM 78.1 °F - 57.9 °F 50% 30.00 in 10.0 mi NW 15.0 mph 19.6 mph N/A   Clear
2:53 PM 79.0 °F - 57.0 °F 47% 29.98 in 10.0 mi WNW 11.5 mph - N/A   Partly Cloudy
3:53 PM 79.0 °F - 57.0 °F 47% 29.96 in 10.0 mi West 8.1 mph - N/A   Partly Cloudy
4:53 PM 81.0 °F 80.4 °F 53.1 °F 38% 29.96 in 10.0 mi NW 10.4 mph 17.3 mph N/A   Clear
5:53 PM 79.0 °F - 57.0 °F 47% 29.95 in 10.0 mi North 5.8 mph - N/A   Scattered Clouds
6:53 PM 78.1 °F - 57.9 °F 50% 29.94 in 10.0 mi NE 8.1 mph - N/A   Scattered Clouds
7:53 PM 73.0 °F - 57.9 °F 59% 29.96 in 10.0 mi NNE 3.5 mph - N/A   Partly Cloudy
8:53 PM 68.0 °F - 60.1 °F 76% 29.99 in 10.0 mi East 3.5 mph - N/A   Clear
9:53 PM 64.9 °F - 60.1 °F 84% 30.02 in 10.0 mi Calm Calm - N/A   Clear
10:53 PM 63.0 °F - 59.0 °F 87% 30.02 in 10.0 mi NNE 5.8 mph - N/A   Clear
11:53 PM 62.1 °F - 59.0 °F 90% 30.01 in 10.0 mi Calm Calm - N/A   Clear